Location: B?dimalle
(17.1788°N, 80.5377°E)
Time: 15:20:04
(UTC+00:00)

Vanguard 1 - Pass Details

Date: 18 February 2026
Orbit: 653 x 3818 km, 34.2° (Epoch: 9 March)

Event Time Altitude Azimuth Distance (km) Brightness Sun altitude
Rises 15:39:18 0° 301° (WNW) 6,936 15.0 -43.2°
Reaches altitude 10° 15:43:25 10° 302° (WNW) 6,211 14.6 -44.1°
Maximum altitude 16:05:40 87° 33° (NNE) 3,820 12.6 -49.4°
Enters shadow 16:06:22 85° 77° (ENE) 3,820 12.6 -49.6°
